sat.trackr.live / text

‹ back to catalog

STARLINK-6087

NORAD 56801 · 2023-078AL

PAYLOAD ACTIVE UNKNOWN

§ Identity

Operator
Country
US
Launch date
2023-05-31
Launch site
AFWTR
Launch vehicle
Mass (kg)
RCS (m²)

Purposes: comms

External: N2YO · Heavens-Above · Gunter

§ Orbital elements

Epoch: 2026-09-20T22:00:03.000096Z

Period
95.79 min
Inclination
70.0010°
Eccentricity
0.0005420
Mean motion
15.03273137 rev/d
Perigee alt
553.1 km
Apogee alt
560.6 km
Semi-major
6,934.9 km
B*
3.8634e-4
RAAN
192.0626°
Arg perigee
265.5409°
Mean anomaly
343.2379°
Rev number
571

§ Raw data

STARLINK-60871 56801U 23078AL  26263.91670139  .00005154  00000+0  38634-3 0  99962 56801  70.0010 192.0626 0005420 265.5409 343.2379 15.03273137  5714

JSON: /api/v1/satellites/56801 · /tle

For live sub-satellite position, see the globe view (requires WebGL).

§ Visibility from observer

Set your observer location to see the next 7 days of passes ≥ 10°. The values pass through the URL so the page stays shareable.

No JS? Fill the form by hand. The geolocation button needs JavaScript.